Find Starlink 30372

NORAD ID: 57789 Int'l Des: 2023-134 Owner: SPXS Country: US Constellation: starlink operational
LEOCIRCULAR

現在のビュー

3D地球を読み込み中...

About Starlink 30372

Starlink 30372 (NORAD 57789) is a starlink constellation satellite (v2 mini) launched Sep 4, 2023 by SPXS of US. It operates in LEO, CIRCULAR orbit with a mass of 730.00 kg.

Starlink 30372について

説明を読み込み中...

次回通過

Passes for default location (London). Set your location on the main map for personalized predictions.

高度履歴

Loading altitude history...

軌道要素

1 57789U 23134U 26174.77925263 .00003393 00000-0 13174-3 0 9997
2 57789 43.0014 199.2163 0001514 320.5333 39.5409 15.27838287157094
Epoch: Jun 23, 2026 • Age: 33 hours

現在のステータス

高度 489.7 km
速度 7.62 km/s
衛星直下点 -31.17°S, 173.51°W
打ち上げ日 Sep 4, 2023
運用期間 2.8 years
タイプ internet

技術仕様

分類 Payload
質量 730.00 kg
乾燥質量 700.00 kg
総質量 730.00 kg
長さ 0.30 m
直径 4.10 m
スパン 29.00 m
形状 Box + pan
製造者 SPXS
バスタイプ Starlink V2M
フェーズステータス In Orbit
所有者/国 SPXS/US

Most Searched